Weather History for KHCD - May, 2013

Change the Weather History Date:

Monday, May 27, 2013

  Actual Average Record
Temperature  
Mean Temperature 58 °F -  
Max Temperature 63 °F 73 °F 95 °F (1969)
Min Temperature 52 °F 52 °F 34 °F (1989)
Degree Days  
Heating Degree Days 8    
Growing Degree Days 8 (Base 50)    
Moisture  
Dew Point 53 °F    
Average Humidity 89    
Maximum Humidity 98    
Minimum Humidity 74    
Precipitation  
Precipitation 0.00 in - - ()
Sea Level Pressure  
Sea Level Pressure 29.91 in    
Wind  
Wind Speed 12 mph (East)    
Max Wind Speed 20 mph    
Max Gust Speed 25 mph    
Visibility 8 miles    
Events Rain    
Averages and records for this station are not official NWS values.
T = Trace of Precipitation, MM = Missing Value Source: NWS Daily Summary

Daily Weather History Graph

Daily Weather History Graph

Search for Another Location

Airport or City:

Trip Planner

Search our weather history database for the weather conditions in past years. The results will help you decide how hot, cold, wet, or windy it might be!

Date:

Astronomy

May. 27, 2013 Rise Set
Actual Time 5:37 AM CDT 8:52 PM CDT
Civil Twilight 5:01 AM CDT 9:28 PM CDT
Nautical Twilight 4:15 AM CDT 10:14 PM CDT
Astronomical Twilight 3:18 AM CDT 11:12 PM CDT
Moon 11:28 PM CDT 8:17 AM CDT
Length of Visible Light 16h 26m
Length of Day
15h 14m
Waning Gibbous, 91% of the Moon is Illuminated
May 27
Waning Gibbous
May 31
Last Quarter
Jun 8
New
Jun 16
First Quarter
Jun 23
Full

Hourly Weather History & Observations

Time (CDT) Temp. Dew Point Humidity Pressure Visibility Wind Dir Wind Speed Gust Speed Precip Events Conditions
12:14 AM 54.9 °F 50.0 °F 84% 30.04 in 10.0 mi East 15.0 mph 23.0 mph N/A   Overcast
12:34 AM 54.9 °F 50.2 °F 84% 30.03 in 10.0 mi East 15.0 mph 20.7 mph N/A   Overcast
12:54 AM 54.9 °F 50.4 °F 85% 30.02 in 10.0 mi East 13.8 mph 20.7 mph N/A   Overcast
1:14 AM 54.7 °F 50.7 °F 86% 30.01 in 10.0 mi East 13.8 mph - N/A   Overcast
1:34 AM 54.7 °F 50.9 °F 87% 30.01 in 10.0 mi ESE 13.8 mph 19.6 mph N/A   Overcast
1:54 AM 54.5 °F 50.9 °F 88% 30.02 in 10.0 mi ESE 12.7 mph - N/A   Overcast
2:13 AM 54.5 °F 51.1 °F 88% 30.03 in 10.0 mi ESE 10.4 mph - N/A   Overcast
2:34 AM 54.0 °F 51.4 °F 91% 30.03 in 7.0 mi ESE 6.9 mph - N/A   Overcast
2:54 AM 53.6 °F 51.8 °F 94% 30.02 in 3.0 mi ESE 9.2 mph - N/A   Overcast
3:14 AM 53.1 °F 52.2 °F 97% 29.97 in 2.5 mi East 10.4 mph - N/A   Overcast
3:34 AM 52.7 °F 52.2 °F 98% 29.97 in 3.0 mi East 9.2 mph - N/A   Overcast
3:54 AM 52.7 °F 52.0 °F 97% 29.96 in 4.0 mi East 8.1 mph - N/A   Overcast
4:13 AM 53.6 °F 51.8 °F 94% 29.97 in 7.0 mi East 9.2 mph - N/A   Overcast
4:34 AM 54.0 °F 51.6 °F 92% 29.97 in 10.0 mi East 9.2 mph - N/A   Overcast
4:54 AM 54.1 °F 51.3 °F 90% 29.97 in 10.0 mi East 11.5 mph - N/A   Overcast
5:13 AM 54.5 °F 51.4 °F 89% 29.97 in 10.0 mi East 11.5 mph - N/A   Overcast
5:34 AM 54.5 °F 51.3 °F 89% 29.98 in 7.0 mi East 9.2 mph - N/A   Overcast
5:54 AM 54.1 °F 51.8 °F 92% 29.98 in 4.0 mi East 10.4 mph - N/A Rain Rain
6:13 AM 53.6 °F 52.0 °F 94% 29.97 in 2.5 mi East 8.1 mph - N/A   Drizzle
6:34 AM 53.2 °F 52.3 °F 97% 29.96 in 3.0 mi East 9.2 mph - N/A   Overcast
6:54 AM 53.6 °F 52.3 °F 95% 29.97 in 4.0 mi East 9.2 mph - N/A   Overcast
7:09 AM 53.6 °F 52.3 °F 95% 29.96 in 4.0 mi East 10.4 mph - N/A   Overcast
7:25 AM 53.6 °F 51.8 °F 94% 29.95 in 3.0 mi East 13.8 mph - N/A   Overcast
7:45 AM 53.6 °F 51.8 °F 94% 29.94 in 2.5 mi East 12.7 mph 19.6 mph N/A   Overcast
7:59 AM 53.6 °F 52.7 °F 97% 29.95 in 3.0 mi East 12.7 mph 19.6 mph N/A   Overcast
8:13 AM 53.8 °F 52.7 °F 96% 29.94 in 3.0 mi East 12.7 mph - N/A   Overcast
8:34 AM 54.0 °F 52.7 °F 95% 29.93 in 4.0 mi East 12.7 mph 17.3 mph N/A   Overcast
8:54 AM 54.1 °F 52.7 °F 95% 29.92 in 4.0 mi East 13.8 mph 19.6 mph N/A   Overcast
9:04 AM 54.3 °F 52.7 °F 94% 29.94 in 4.0 mi East 12.7 mph 19.6 mph N/A   Overcast
9:25 AM 53.6 °F 51.8 °F 94% 29.94 in 4.0 mi East 12.7 mph 20.7 mph N/A   Overcast
9:45 AM 53.6 °F 51.8 °F 94% 29.94 in 5.0 mi East 12.7 mph - N/A   Overcast
10:05 AM 55.4 °F 53.6 °F 94% 29.93 in 5.0 mi East 16.1 mph 20.7 mph N/A   Overcast
10:25 AM 55.4 °F 53.6 °F 94% 29.92 in 5.0 mi East 15.0 mph 18.4 mph N/A   Overcast
10:45 AM 55.4 °F 53.6 °F 94% 29.91 in 5.0 mi East 18.4 mph 21.9 mph N/A   Overcast
11:05 AM 55.4 °F 53.6 °F 94% 29.89 in 5.0 mi East 18.4 mph 25.3 mph N/A   Overcast
11:25 AM 55.4 °F 53.6 °F 94% 29.89 in 7.0 mi East 12.7 mph 18.4 mph N/A   Overcast
11:45 AM 57.2 °F 53.6 °F 88% 29.88 in 7.0 mi East 13.8 mph 18.4 mph N/A   Overcast
12:05 PM 57.2 °F 53.6 °F 88% 29.88 in 7.0 mi East 10.4 mph - N/A   Overcast
12:25 PM 57.2 °F 53.6 °F 88% 29.88 in 7.0 mi East 13.8 mph - N/A   Overcast
12:45 PM 57.2 °F 53.6 °F 88% 29.88 in 10.0 mi East 10.4 mph - N/A   Overcast
12:59 PM 58.1 °F 54.0 °F 86% 29.89 in 10.0 mi East 12.7 mph 17.3 mph N/A   Overcast
1:13 PM 58.3 °F 54.0 °F 86% 29.90 in 10.0 mi East 10.4 mph 17.3 mph N/A   Overcast
1:34 PM 58.6 °F 54.3 °F 86% 29.90 in 10.0 mi East 10.4 mph - N/A   Overcast
1:54 PM 58.6 °F 53.8 °F 84% 29.89 in 10.0 mi East 10.4 mph - N/A   Overcast
2:14 PM 59.2 °F 54.1 °F 83% 29.89 in 10.0 mi East 13.8 mph - N/A   Overcast
2:34 PM 60.8 °F 55.2 °F 82% 29.87 in 10.0 mi East 12.7 mph 17.3 mph N/A   Mostly Cloudy
2:54 PM 61.7 °F 54.7 °F 78% 29.87 in 10.0 mi East 19.6 mph 24.2 mph N/A   Scattered Clouds
3:14 PM 62.1 °F 54.1 °F 75% 29.88 in 10.0 mi East 16.1 mph 24.2 mph N/A   Mostly Cloudy
3:34 PM 61.7 °F 54.0 °F 76% 29.88 in 10.0 mi East 13.8 mph 19.6 mph N/A   Overcast
3:54 PM 61.5 °F 54.0 °F 76% 29.89 in 10.0 mi East 13.8 mph - N/A   Overcast
4:14 PM 61.0 °F 54.0 °F 78% 29.88 in 10.0 mi East 10.4 mph - N/A   Overcast
4:34 PM 63.0 °F 54.9 °F 75% 29.86 in 10.0 mi East 13.8 mph 18.4 mph N/A   Overcast
4:54 PM 63.1 °F 54.7 °F 74% 29.86 in 10.0 mi East 15.0 mph - N/A   Overcast
5:14 PM 61.7 °F 54.1 °F 76% 29.87 in 10.0 mi ESE 12.7 mph - N/A   Overcast
5:34 PM 61.0 °F 54.5 °F 79% 29.86 in 10.0 mi East 12.7 mph - N/A   Overcast
5:54 PM 61.3 °F 54.9 °F 79% 29.85 in 10.0 mi East 12.7 mph 19.6 mph N/A   Overcast
6:14 PM 60.6 °F 54.1 °F 79% 29.85 in 10.0 mi East 15.0 mph 20.7 mph N/A   Overcast
6:34 PM 59.5 °F 54.3 °F 83% 29.85 in 10.0 mi East 13.8 mph 19.6 mph N/A   Overcast
6:53 PM 59.4 °F 54.5 °F 84% 29.85 in 10.0 mi East 13.8 mph 19.6 mph N/A   Overcast
7:14 PM 59.0 °F 54.7 °F 86% 29.85 in 10.0 mi East 13.8 mph - N/A   Overcast
7:33 PM 58.8 °F 54.9 °F 87% 29.85 in 10.0 mi East 12.7 mph 18.4 mph N/A   Overcast
7:54 PM 58.6 °F 55.2 °F 88% 29.85 in 10.0 mi East 11.5 mph 16.1 mph N/A   Overcast
8:13 PM 58.6 °F 55.4 °F 89% 29.85 in 10.0 mi East 10.4 mph - N/A   Overcast
8:34 PM 58.3 °F 55.4 °F 90% 29.85 in 10.0 mi East 10.4 mph 19.6 mph N/A   Overcast
8:54 PM 58.1 °F 55.4 °F 91% 29.84 in 10.0 mi East 12.7 mph - N/A   Overcast
9:13 PM 57.6 °F 55.4 °F 92% 29.84 in 10.0 mi East 9.2 mph - N/A   Overcast
9:33 PM 57.2 °F 55.4 °F 94% 29.84 in 7.0 mi East 11.5 mph - N/A   Overcast
9:54 PM 57.2 °F 55.4 °F 94% 29.84 in 7.0 mi East 10.4 mph 17.3 mph N/A   Overcast
10:14 PM 57.2 °F 55.4 °F 94% 29.84 in 7.0 mi East 11.5 mph - N/A   Overcast
10:33 PM 57.2 °F 55.0 °F 92% 29.85 in 10.0 mi East 16.1 mph 19.6 mph N/A   Overcast
10:54 PM 57.2 °F 55.0 °F 92% 29.85 in 10.0 mi East 8.1 mph - N/A   Overcast
11:13 PM 57.2 °F 55.2 °F 93% 29.84 in 10.0 mi East 9.2 mph - N/A   Overcast
11:33 PM 56.7 °F 55.2 °F 95% 29.84 in 10.0 mi East 6.9 mph - N/A   Overcast
11:54 PM 56.7 °F 55.0 °F 94% 29.84 in 10.0 mi East 8.1 mph - N/A   Overcast